Find Starlink 32270

NORAD ID: 60364 Int'l Des: 2024-138 Owner: SPXS Country: US Constellation: starlink operational
LEOCIRCULAR

Current View

Loading 3D Globe...

About Starlink 32270

Starlink 32270 (NORAD 60364) is a starlink constellation satellite (v2 mini) launched Aug 4, 2024 by SPXS of US. It operates in LEO, CIRCULAR orbit with a mass of 730.00 kg.

About Starlink 32270

Description loading...

Upcoming Passes

Passes for default location (London). Set your location on the main map for personalized predictions.

Altitude History

Loading altitude history...

Two-Line Element Set

1 60364U 24138K 26176.29319846 -.00001554 00000-0 -38292-4 0 9996
2 60364 53.1598 169.6971 0001361 67.0140 293.1005 15.31708892107002
Epoch: Jun 25, 2026 • Age: 14 hours

Current Status

Altitude 486.7 km
Velocity 7.62 km/s
Sub-Earth Point -44.55°S, 171.06°E
Launch Date Aug 4, 2024
Age 1.8 years
Type internet

Technical Details

Classification Payload
Mass 730.00 kg
Dry Mass 700.00 kg
Total Mass 730.00 kg
Length 0.30 m
Diameter 4.10 m
Span 29.00 m
Shape Box + pan
Manufacturer SPXS
Bus Type Starlink V2M
Phase Status In Orbit
Owner/State SPXS/US

Most Searched